Time,TemperatureF,DewpointF,PressureIn,WindDirection,WindDirectionDegrees,WindSpeedMPH,WindSpeedGustMPH,Humidity,HourlyPrecipIn,Conditions,Clouds,dailyrainin,SoftwareType,DateUTC
2013-09-22 00:00:00,49.3,10.9,28.94,West,265,0.0,0.0,21,0.00,CLR,,0.00,WeatherDisplay:10.37,2013-09-22 04:00:00,
2013-09-22 00:05:00,49.3,10.9,28.94,West,265,0.0,0.0,21,0.00,CLR,,0.00,WeatherDisplay:10.37,2013-09-22 04:05:00,
2013-09-22 00:10:00,49.5,11.1,28.94,West,265,0.0,0.0,21,0.00,CLR,,0.00,WeatherDisplay:10.37,2013-09-22 04:10:00,
2013-09-22 00:15:00,49.5,11.1,28.94,West,265,0.0,0.0,21,0.00,CLR,,0.00,WeatherDisplay:10.37,2013-09-22 04:15:00,
2013-09-22 00:20:00,49.5,11.1,28.94,West,265,0.0,0.0,21,0.00,CLR,,0.00,WeatherDisplay:10.37,2013-09-22 04:20:00,
2013-09-22 00:30:00,49.5,11.1,28.94,West,265,0.0,0.0,21,0.00,CLR,,0.00,WeatherDisplay:10.37,2013-09-22 04:30:00,
2013-09-22 00:35:00,49.5,11.1,28.94,West,265,0.0,0.0,21,0.00,CLR,,0.00,WeatherDisplay:10.37,2013-09-22 04:35:00,
2013-09-22 00:40:00,49.3,10.9,28.94,West,265,0.0,0.0,21,0.00,CLR,,0.00,WeatherDisplay:10.37,2013-09-22 04:40:00,
2013-09-22 00:45:00,49.1,10.8,28.94,West,265,0.0,0.0,21,0.00,CLR,,0.00,WeatherDisplay:10.37,2013-09-22 04:45:00,
2013-09-22 00:50:00,49.1,10.8,28.94,West,265,0.0,0.0,21,0.00,CLR,,0.00,WeatherDisplay:10.37,2013-09-22 04:50:00,
2013-09-22 00:55:00,48.7,10.5,28.94,West,265,0.0,0.0,21,0.00,CLR,,0.00,WeatherDisplay:10.37,2013-09-22 04:55:00,
2013-09-22 01:00:00,48.6,10.3,28.94,West,265,0.0,0.0,21,0.00,CLR,,0.00,WeatherDisplay:10.37,2013-09-22 05:00:00,
2013-09-22 01:10:00,48.2,11.1,28.94,West,265,0.0,0.0,22,0.00,CLR,,0.00,WeatherDisplay:10.37,2013-09-22 05:10:00,
2013-09-22 01:15:00,48.0,12.9,28.94,West,265,0.0,0.0,24,0.00,CLR,,0.00,WeatherDisplay:10.37,2013-09-22 05:15:00,
2013-09-22 01:20:00,48.2,13.0,28.94,West,265,0.0,0.0,24,0.00,CLR,,0.00,WeatherDisplay:10.37,2013-09-22 05:20:00,
2013-09-22 01:25:00,48.0,12.9,28.94,West,265,0.0,0.0,24,0.00,CLR,,0.00,WeatherDisplay:10.37,2013-09-22 05:25:00,
2013-09-22 01:35:00,48.2,13.0,28.94,West,265,0.0,0.0,24,0.00,CLR,,0.00,WeatherDisplay:10.37,2013-09-22 05:35:00,
2013-09-22 01:40:00,48.0,12.9,28.94,West,265,0.0,0.0,24,0.00,CLR,,0.00,WeatherDisplay:10.37,2013-09-22 05:40:00,
2013-09-22 01:50:00,47.7,12.6,28.94,West,265,0.0,0.0,24,0.00,CLR,,0.00,WeatherDisplay:10.37,2013-09-22 05:50:00,
2013-09-22 01:55:00,47.5,12.5,28.94,West,265,0.0,0.0,24,0.00,CLR,,0.00,WeatherDisplay:10.37,2013-09-22 05:55:00,
2013-09-22 02:05:00,47.3,12.3,28.94,West,265,0.0,0.0,24,0.00,CLR,,0.00,WeatherDisplay:10.37,2013-09-22 06:05:00,
2013-09-22 02:15:00,47.5,15.1,28.94,West,265,0.0,0.0,27,0.00,CLR,,0.00,WeatherDisplay:10.37,2013-09-22 06:15:00,
2013-09-22 02:20:00,47.5,15.1,28.94,West,265,0.0,0.0,27,0.00,CLR,,0.00,WeatherDisplay:10.37,2013-09-22 06:20:00,
2013-09-22 02:25:00,47.5,15.1,28.94,West,265,0.0,0.0,27,0.00,CLR,,0.00,WeatherDisplay:10.37,2013-09-22 06:25:00,
2013-09-22 02:30:00,47.5,15.1,28.94,West,265,0.0,0.0,27,0.00,CLR,,0.00,WeatherDisplay:10.37,2013-09-22 06:30:00,
2013-09-22 02:40:00,47.7,15.3,28.94,West,265,0.0,0.0,27,0.00,CLR,,0.00,WeatherDisplay:10.37,2013-09-22 06:40:00,
2013-09-22 02:45:00,47.8,15.4,28.94,West,265,0.0,0.0,27,0.00,CLR,,0.00,WeatherDisplay:10.37,2013-09-22 06:45:00,
2013-09-22 02:50:00,48.3,15.8,28.94,West,265,0.0,0.0,27,0.00,CLR,,0.00,WeatherDisplay:10.37,2013-09-22 06:50:00,
2013-09-22 03:00:00,48.7,16.2,28.94,West,265,0.0,0.0,27,0.00,CLR,,0.00,WeatherDisplay:10.37,2013-09-22 07:00:00,
2013-09-22 03:05:00,48.9,16.4,28.94,West,265,0.0,0.0,27,0.00,CLR,,0.00,WeatherDisplay:10.37,2013-09-22 07:05:00,
2013-09-22 03:10:00,49.1,16.5,28.94,West,265,0.0,0.0,27,0.00,CLR,,0.00,WeatherDisplay:10.37,2013-09-22 07:10:00,
2013-09-22 03:15:00,49.1,16.5,28.94,West,265,0.0,3.0,27,0.00,CLR,,0.00,WeatherDisplay:10.37,2013-09-22 07:15:00,
2013-09-22 03:25:00,49.1,17.3,28.94,West,265,0.0,0.0,28,0.00,CLR,,0.00,WeatherDisplay:10.37,2013-09-22 07:25:00,
2013-09-22 03:30:00,49.3,17.5,28.94,West,265,0.0,0.0,28,0.00,CLR,,0.00,WeatherDisplay:10.37,2013-09-22 07:30:00,
2013-09-22 03:35:00,49.3,17.5,28.94,West,265,0.0,0.0,28,0.00,CLR,,0.00,WeatherDisplay:10.37,2013-09-22 07:35:00,
2013-09-22 03:40:00,49.3,17.5,28.94,West,265,0.0,0.0,28,0.00,CLR,,0.00,WeatherDisplay:10.37,2013-09-22 07:40:00,
2013-09-22 03:50:00,49.6,17.8,28.94,West,265,0.0,0.0,28,0.00,CLR,,0.00,WeatherDisplay:10.37,2013-09-22 07:50:00,
2013-09-22 03:55:00,49.8,18.0,28.94,West,265,0.0,0.0,28,0.00,CLR,,0.00,WeatherDisplay:10.37,2013-09-22 07:55:00,
2013-09-22 04:00:00,49.8,18.0,28.94,West,265,0.0,0.0,28,0.00,CLR,,0.00,WeatherDisplay:10.37,2013-09-22 08:00:00,
2013-09-22 04:10:00,50.0,18.1,28.94,West,265,0.0,0.0,28,0.00,CLR,,0.00,WeatherDisplay:10.37,2013-09-22 08:10:00,
2013-09-22 04:20:00,50.0,18.1,28.94,West,265,0.0,0.0,28,0.00,CLR,,0.00,WeatherDisplay:10.37,2013-09-22 08:20:00,
2013-09-22 04:30:00,50.0,18.1,28.94,West,265,0.0,0.0,28,0.00,CLR,,0.00,WeatherDisplay:10.37,2013-09-22 08:30:00,
2013-09-22 04:35:00,50.0,18.1,28.94,West,265,0.0,0.0,28,0.00,CLR,,0.00,WeatherDisplay:10.37,2013-09-22 08:35:00,
2013-09-22 04:45:00,50.0,18.1,28.94,West,265,0.0,0.0,28,0.00,CLR,,0.00,WeatherDisplay:10.37,2013-09-22 08:45:00,
2013-09-22 04:50:00,50.2,18.3,28.94,West,265,0.0,0.0,28,0.00,CLR,,0.00,WeatherDisplay:10.37,2013-09-22 08:50:00,
2013-09-22 05:00:00,50.2,18.3,28.97,West,265,0.0,0.0,28,0.00,CLR,,0.00,WeatherDisplay:10.37,2013-09-22 09:00:00,
2013-09-22 05:10:00,50.4,18.4,28.97,West,265,0.0,0.0,28,0.00,CLR,,0.00,WeatherDisplay:10.37,2013-09-22 09:10:00,
2013-09-22 05:15:00,50.4,18.4,28.97,West,265,0.0,0.0,28,0.00,CLR,,0.00,WeatherDisplay:10.37,2013-09-22 09:15:00,
2013-09-22 05:25:00,50.5,18.6,28.97,West,265,0.0,0.0,28,0.00,CLR,,0.00,WeatherDisplay:10.37,2013-09-22 09:25:00,
2013-09-22 05:35:00,50.5,18.6,28.97,West,265,0.0,0.0,28,0.00,CLR,,0.00,WeatherDisplay:10.37,2013-09-22 09:35:00,
2013-09-22 05:40:00,50.5,18.6,28.97,West,265,0.0,0.0,28,0.00,CLR,,0.00,WeatherDisplay:10.37,2013-09-22 09:40:00,
2013-09-22 05:50:00,50.7,18.8,28.97,West,265,0.0,0.0,28,0.00,CLR,,0.00,WeatherDisplay:10.37,2013-09-22 09:50:00,
2013-09-22 06:00:00,50.5,18.6,28.97,West,265,0.0,0.0,28,0.00,CLR,,0.00,WeatherDisplay:10.37,2013-09-22 10:00:00,
2013-09-22 06:05:00,50.5,18.6,28.97,West,265,0.0,0.0,28,0.00,CLR,,0.00,WeatherDisplay:10.37,2013-09-22 10:05:00,
2013-09-22 06:10:00,50.5,18.6,28.97,West,265,0.0,0.0,28,0.00,CLR,,0.00,WeatherDisplay:10.37,2013-09-22 10:10:00,
2013-09-22 06:20:00,50.4,18.4,28.97,West,265,0.0,0.0,28,0.00,CLR,,0.00,WeatherDisplay:10.37,2013-09-22 10:20:00,
2013-09-22 06:30:00,49.8,18.8,28.97,West,265,0.0,0.0,29,0.00,CLR,,0.00,WeatherDisplay:10.37,2013-09-22 10:30:00,
2013-09-22 06:40:00,49.1,18.2,28.97,West,265,0.0,0.0,29,0.00,CLR,,0.00,WeatherDisplay:10.37,2013-09-22 10:40:00,
2013-09-22 06:50:00,48.5,17.6,28.97,West,265,0.0,0.0,29,0.00,CLR,,0.00,WeatherDisplay:10.37,2013-09-22 10:50:00,
2013-09-22 06:55:00,48.2,17.4,28.97,West,265,0.0,0.0,29,0.00,CLR,,0.00,WeatherDisplay:10.37,2013-09-22 10:55:00,
2013-09-22 07:05:00,47.8,17.1,28.97,West,265,0.0,0.0,29,0.00,CLR,,0.00,WeatherDisplay:10.37,2013-09-22 11:05:00,
2013-09-22 07:10:00,47.8,17.1,28.97,West,265,0.0,0.0,29,0.00,CLR,,0.00,WeatherDisplay:10.37,2013-09-22 11:10:00,
2013-09-22 07:20:00,47.7,16.9,28.97,West,265,0.0,0.0,29,0.00,CLR,,0.00,WeatherDisplay:10.37,2013-09-22 11:20:00,
2013-09-22 07:25:00,47.6,16.9,28.99,West,265,0.0,0.0,29,0.00,CLR,,0.00,WeatherDisplay:10.37,2013-09-22 11:25:00,
2013-09-22 07:30:00,47.3,16.6,29.00,West,265,0.0,0.0,29,0.00,CLR,,0.00,WeatherDisplay:10.37,2013-09-22 11:30:00,
2013-09-22 07:40:00,47.1,16.4,29.00,West,265,0.0,0.0,29,0.00,CLR,,0.00,WeatherDisplay:10.37,2013-09-22 11:40:00,
2013-09-22 07:50:00,47.4,16.7,29.00,West,265,0.0,0.0,29,0.00,CLR,,0.00,WeatherDisplay:10.37,2013-09-22 11:50:00,
2013-09-22 07:55:00,50.1,19.8,29.00,West,265,0.0,0.0,30,0.00,CLR,,0.00,WeatherDisplay:10.37,2013-09-22 11:55:00,
2013-09-22 08:05:00,54.7,21.4,29.00,West,265,0.0,0.0,27,0.00,CLR,,0.00,WeatherDisplay:10.37,2013-09-22 12:05:00,
2013-09-22 08:10:00,56.4,20.9,29.00,West,265,0.0,0.0,25,0.00,CLR,,0.00,WeatherDisplay:10.37,2013-09-22 12:10:00,
2013-09-22 08:20:00,56.7,21.2,29.00,West,265,0.0,0.0,25,0.00,CLR,,0.00,WeatherDisplay:10.37,2013-09-22 12:20:00,
2013-09-22 08:25:00,57.5,20.9,29.00,West,265,0.0,0.0,24,0.00,CLR,,0.00,WeatherDisplay:10.37,2013-09-22 12:25:00,
2013-09-22 08:30:00,58.1,22.4,29.00,West,265,0.0,0.0,25,0.00,CLR,,0.00,WeatherDisplay:10.37,2013-09-22 12:30:00,
2013-09-22 08:35:00,58.3,22.6,29.00,West,265,0.0,0.0,25,0.00,CLR,,0.00,WeatherDisplay:10.37,2013-09-22 12:35:00,
2013-09-22 08:45:00,56.7,21.2,29.00,West,270,0.0,3.0,25,0.00,CLR,,0.00,WeatherDisplay:10.37,2013-09-22 12:45:00,
2013-09-22 08:50:00,56.6,21.1,29.00,NNE,27,0.0,3.0,25,0.00,CLR,,0.00,WeatherDisplay:10.37,2013-09-22 12:50:00,
2013-09-22 09:00:00,56.8,22.3,29.00,ENE,60,3.0,5.0,26,0.00,CLR,,0.00,WeatherDisplay:10.37,2013-09-22 13:00:00,
2013-09-22 09:05:00,56.6,21.1,29.00,ENE,65,3.0,5.0,25,0.00,CLR,,0.00,WeatherDisplay:10.37,2013-09-22 13:05:00,
2013-09-22 09:10:00,56.8,21.3,29.01,ENE,69,0.0,5.0,25,0.00,CLR,,0.00,WeatherDisplay:10.37,2013-09-22 13:10:00,
2013-09-22 09:15:00,56.7,21.3,29.03,ENE,66,3.0,6.0,25,0.00,CLR,,0.00,WeatherDisplay:10.37,2013-09-22 13:15:00,
2013-09-22 09:25:00,57.9,19.2,29.03,ENE,65,3.0,6.0,22,0.00,CLR,,0.00,WeatherDisplay:10.37,2013-09-22 13:25:00,
2013-09-22 09:30:00,58.5,19.7,29.03,ENE,66,3.0,6.0,22,0.00,CLR,,0.00,WeatherDisplay:10.37,2013-09-22 13:30:00,
2013-09-22 09:35:00,58.6,19.9,29.03,ENE,69,5.0,6.0,22,0.00,CLR,,0.00,WeatherDisplay:10.37,2013-09-22 13:35:00,
2013-09-22 09:40:00,59.3,20.4,29.03,ENE,69,5.0,6.0,22,0.00,CLR,,0.00,WeatherDisplay:10.37,2013-09-22 13:40:00,
2013-09-22 09:45:00,59.7,17.3,29.03,ENE,65,0.0,6.0,19,0.00,CLR,,0.00,WeatherDisplay:10.37,2013-09-22 13:45:00,
2013-09-22 09:50:00,60.5,18.0,29.03,ENE,74,3.0,6.0,19,0.00,CLR,,0.00,WeatherDisplay:10.37,2013-09-22 13:50:00,
2013-09-22 09:55:00,60.6,18.1,29.03,ENE,70,2.0,6.0,19,0.00,CLR,,0.00,WeatherDisplay:10.37,2013-09-22 13:55:00,
2013-09-22 10:05:00,61.2,14.5,29.03,ENE,70,5.0,7.0,16,0.00,CLR,,0.00,WeatherDisplay:10.37,2013-09-22 14:05:00,
2013-09-22 10:10:00,61.0,14.4,29.03,ENE,67,5.0,6.0,16,0.00,CLR,,0.00,WeatherDisplay:10.37,2013-09-22 14:10:00,
2013-09-22 10:15:00,60.6,15.5,29.03,ENE,66,3.0,8.0,17,0.00,CLR,,0.00,WeatherDisplay:10.37,2013-09-22 14:15:00,
2013-09-22 10:20:00,61.0,14.4,29.03,ENE,65,3.0,6.0,16,0.00,CLR,,0.00,WeatherDisplay:10.37,2013-09-22 14:20:00,
2013-09-22 10:30:00,61.8,15.0,29.03,ENE,67,5.0,7.0,16,0.00,CLR,,0.00,WeatherDisplay:10.37,2013-09-22 14:30:00,
2013-09-22 10:40:00,62.2,15.4,29.03,East,84,2.0,6.0,16,0.00,CLR,,0.00,WeatherDisplay:10.37,2013-09-22 14:40:00,
2013-09-22 10:45:00,62.1,15.3,29.03,ENE,66,5.0,8.0,16,0.00,CLR,,0.00,WeatherDisplay:10.37,2013-09-22 14:45:00,
2013-09-22 10:50:00,61.5,14.8,29.03,ENE,62,0.0,8.0,16,0.00,CLR,,0.00,WeatherDisplay:10.37,2013-09-22 14:50:00,
2013-09-22 11:00:00,61.3,14.7,29.06,ENE,69,3.0,8.0,16,0.00,CLR,,0.00,WeatherDisplay:10.37,2013-09-22 15:00:00,
2013-09-22 11:05:00,62.1,15.3,29.06,ENE,69,6.0,9.0,16,0.00,CLR,,0.00,WeatherDisplay:10.37,2013-09-22 15:05:00,
2013-09-22 11:15:00,61.9,15.1,29.06,NE,43,3.0,8.0,16,0.00,CLR,,0.00,WeatherDisplay:10.37,2013-09-22 15:15:00,
2013-09-22 11:20:00,62.2,15.4,29.06,NE,56,3.0,9.0,16,0.00,CLR,,0.00,WeatherDisplay:10.37,2013-09-22 15:20:00,
2013-09-22 11:25:00,62.2,15.4,29.06,ENE,60,5.0,8.0,16,0.00,CLR,,0.00,WeatherDisplay:10.37,2013-09-22 15:25:00,
2013-09-22 11:30:00,61.7,15.0,29.06,ENE,62,3.0,6.0,16,0.00,CLR,,0.00,WeatherDisplay:10.37,2013-09-22 15:30:00,
2013-09-22 11:35:00,61.7,15.0,29.06,ENE,67,3.0,5.0,16,0.00,CLR,,0.00,WeatherDisplay:10.37,2013-09-22 15:35:00,
2013-09-22 11:40:00,62.1,15.3,29.06,ENE,66,2.0,6.0,16,0.00,CLR,,0.00,WeatherDisplay:10.37,2013-09-22 15:40:00,
2013-09-22 11:45:00,62.2,15.4,29.06,NE,53,3.0,8.0,16,0.00,CLR,,0.00,WeatherDisplay:10.37,2013-09-22 15:45:00,
2013-09-22 11:50:00,62.4,15.6,29.06,NE,54,2.0,6.0,16,0.00,CLR,,0.00,WeatherDisplay:10.37,2013-09-22 15:50:00,
2013-09-22 12:00:00,62.9,15.9,29.06,NE,49,3.0,6.0,16,0.00,CLR,,0.00,WeatherDisplay:10.37,2013-09-22 16:00:00,
2013-09-22 12:05:00,62.6,15.7,29.06,NNE,19,6.0,8.0,16,0.00,CLR,,0.00,WeatherDisplay:10.37,2013-09-22 16:05:00,
2013-09-22 12:10:00,63.0,16.0,29.06,NNW,344,2.0,6.0,16,0.00,CLR,,0.00,WeatherDisplay:10.37,2013-09-22 16:10:00,
2013-09-22 12:15:00,63.1,16.2,29.06,NNW,333,2.0,6.0,16,0.00,CLR,,0.00,WeatherDisplay:10.37,2013-09-22 16:15:00,
2013-09-22 12:20:00,63.7,16.6,29.06,NNE,31,3.0,7.0,16,0.00,CLR,,0.00,WeatherDisplay:10.37,2013-09-22 16:20:00,
2013-09-22 12:25:00,64.0,16.9,29.06,North,1,2.0,6.0,16,0.00,CLR,,0.00,WeatherDisplay:10.37,2013-09-22 16:25:00,
2013-09-22 12:30:00,63.7,16.6,29.06,North,358,0.0,6.0,16,0.00,CLR,,0.00,WeatherDisplay:10.37,2013-09-22 16:30:00,
2013-09-22 12:35:00,63.7,16.6,29.06,NE,50,2.0,8.0,16,0.00,CLR,,0.00,WeatherDisplay:10.37,2013-09-22 16:35:00,
2013-09-22 12:45:00,64.2,17.0,29.06,ENE,69,0.0,4.0,16,0.00,CLR,,0.00,WeatherDisplay:10.37,2013-09-22 16:45:00,
2013-09-22 12:50:00,65.1,16.3,29.06,NNE,23,2.0,8.0,15,0.00,CLR,,0.00,WeatherDisplay:10.37,2013-09-22 16:50:00,
2013-09-22 12:55:00,64.7,15.9,29.06,NE,42,0.0,5.0,15,0.00,CLR,,0.00,WeatherDisplay:10.37,2013-09-22 16:55:00,
2013-09-22 13:00:00,64.6,15.8,29.03,NNE,26,1.0,5.0,15,0.00,CLR,,0.00,WeatherDisplay:10.37,2013-09-22 17:00:00,
2013-09-22 13:10:00,65.3,16.4,29.03,ENE,59,6.0,8.0,15,0.00,CLR,,0.00,WeatherDisplay:10.37,2013-09-22 17:10:00,
2013-09-22 13:20:00,65.5,16.5,29.03,ENE,69,2.0,6.0,15,0.00,CLR,,0.00,WeatherDisplay:10.37,2013-09-22 17:20:00,
2013-09-22 13:25:00,65.5,16.6,29.03,NE,46,3.0,6.0,15,0.00,CLR,,0.00,WeatherDisplay:10.37,2013-09-22 17:25:00,
2013-09-22 13:30:00,64.9,16.1,29.03,NW,321,5.0,8.0,15,0.00,CLR,,0.00,WeatherDisplay:10.37,2013-09-22 17:30:00,
2013-09-22 13:35:00,65.3,16.4,29.03,North,353,3.0,7.0,15,0.00,CLR,,0.00,WeatherDisplay:10.37,2013-09-22 17:35:00,
2013-09-22 13:40:00,65.6,16.7,29.03,NE,55,3.0,7.0,15,0.00,CLR,,0.00,WeatherDisplay:10.37,2013-09-22 17:40:00,
2013-09-22 13:45:00,65.8,16.8,29.03,NE,42,2.0,4.0,15,0.00,CLR,,0.00,WeatherDisplay:10.37,2013-09-22 17:45:00,
2013-09-22 13:50:00,65.7,16.7,29.03,NW,320,5.0,8.0,15,0.00,CLR,,0.00,WeatherDisplay:10.37,2013-09-22 17:50:00,
2013-09-22 13:55:00,65.0,16.2,29.03,NW,322,5.0,8.0,15,0.00,CLR,,0.00,WeatherDisplay:10.37,2013-09-22 17:55:00,
2013-09-22 14:05:00,65.3,16.4,29.03,NNE,32,0.0,4.0,15,0.00,CLR,,0.00,WeatherDisplay:10.37,2013-09-22 18:05:00,
2013-09-22 14:10:00,65.6,16.7,29.03,ENE,63,6.0,8.0,15,0.00,CLR,,0.00,WeatherDisplay:10.37,2013-09-22 18:10:00,
2013-09-22 14:20:00,66.1,17.0,29.03,NNE,33,3.0,4.0,15,0.00,CLR,,0.00,WeatherDisplay:10.37,2013-09-22 18:20:00,
2013-09-22 14:25:00,66.2,17.1,29.03,NNW,337,5.0,8.0,15,0.00,CLR,,0.00,WeatherDisplay:10.37,2013-09-22 18:25:00,
2013-09-22 14:30:00,66.0,17.0,29.03,NNW,336,0.0,6.0,15,0.00,CLR,,0.00,WeatherDisplay:10.37,2013-09-22 18:30:00,
2013-09-22 14:35:00,66.4,18.8,29.03,NE,43,6.0,9.0,16,0.00,CLR,,0.00,WeatherDisplay:10.37,2013-09-22 18:35:00,
2013-09-22 14:40:00,66.9,20.6,29.03,East,86,5.0,6.0,17,0.00,CLR,,0.00,WeatherDisplay:10.37,2013-09-22 18:40:00,
2013-09-22 14:50:00,66.9,17.7,29.03,NE,37,0.0,5.0,15,0.00,CLR,,0.00,WeatherDisplay:10.37,2013-09-22 18:50:00,
2013-09-22 15:00:00,66.7,20.5,29.03,North,3,0.0,5.0,17,0.00,CLR,,0.00,WeatherDisplay:10.37,2013-09-22 19:00:00,
2013-09-22 15:05:00,67.0,20.7,29.03,ENE,69,5.0,9.0,17,0.00,CLR,,0.00,WeatherDisplay:10.37,2013-09-22 19:05:00,
2013-09-22 15:10:00,67.0,20.7,29.02,ENE,67,0.0,3.0,17,0.00,CLR,,0.00,WeatherDisplay:10.37,2013-09-22 19:10:00,
2013-09-22 15:15:00,67.5,21.1,29.00,NNE,14,0.0,4.0,17,0.00,CLR,,0.00,WeatherDisplay:10.37,2013-09-22 19:15:00,
2013-09-22 15:20:00,67.8,21.4,29.00,NE,42,1.0,7.0,17,0.00,CLR,,0.00,WeatherDisplay:10.37,2013-09-22 19:20:00,
2013-09-22 15:30:00,67.6,21.2,29.00,ENE,61,3.0,8.0,17,0.00,CLR,,0.00,WeatherDisplay:10.37,2013-09-22 19:30:00,
2013-09-22 15:40:00,67.8,21.4,29.00,NNE,23,2.0,6.0,17,0.00,CLR,,0.00,WeatherDisplay:10.37,2013-09-22 19:40:00,
2013-09-22 15:45:00,67.6,21.2,29.00,NW,326,3.0,6.0,17,0.00,CLR,,0.00,WeatherDisplay:10.37,2013-09-22 19:45:00,
2013-09-22 15:50:00,67.6,21.2,29.00,North,2,0.0,6.0,17,0.00,CLR,,0.00,WeatherDisplay:10.37,2013-09-22 19:50:00,
2013-09-22 15:55:00,67.8,21.4,29.00,ENE,59,2.0,9.0,17,0.00,CLR,,0.00,WeatherDisplay:10.37,2013-09-22 19:55:00,
2013-09-22 16:00:00,68.0,21.5,29.00,ENE,66,2.0,4.0,17,0.00,CLR,,0.00,WeatherDisplay:10.37,2013-09-22 20:00:00,
2013-09-22 16:05:00,68.0,21.5,29.00,ENE,64,5.0,6.0,17,0.00,CLR,,0.00,WeatherDisplay:10.37,2013-09-22 20:05:00,
2013-09-22 16:10:00,67.8,21.4,29.00,ENE,66,3.0,6.0,17,0.00,CLR,,0.00,WeatherDisplay:10.37,2013-09-22 20:10:00,
2013-09-22 16:20:00,67.8,21.4,29.00,NNE,29,3.0,8.0,17,0.00,CLR,,0.00,WeatherDisplay:10.37,2013-09-22 20:20:00,
2013-09-22 16:30:00,68.0,21.5,29.00,NNE,31,2.0,6.0,17,0.00,CLR,,0.00,WeatherDisplay:10.37,2013-09-22 20:30:00,
2013-09-22 16:40:00,68.2,21.7,29.00,NE,54,0.0,4.0,17,0.00,CLR,,0.00,WeatherDisplay:10.37,2013-09-22 20:40:00,
2013-09-22 16:45:00,68.0,21.5,29.00,NE,49,3.0,6.0,17,0.00,CLR,,0.00,WeatherDisplay:10.37,2013-09-22 20:45:00,
2013-09-22 16:50:00,68.0,21.5,29.00,NE,49,2.0,8.0,17,0.00,CLR,,0.00,WeatherDisplay:10.37,2013-09-22 20:50:00,
2013-09-22 16:55:00,68.0,21.5,29.00,ENE,60,2.0,6.0,17,0.00,CLR,,0.00,WeatherDisplay:10.37,2013-09-22 20:55:00,
2013-09-22 17:05:00,68.0,21.5,29.00,ENE,62,0.0,4.0,17,0.00,CLR,,0.00,WeatherDisplay:10.37,2013-09-22 21:05:00,
2013-09-22 17:15:00,67.8,21.4,29.00,NW,319,3.0,6.0,17,0.00,CLR,,0.00,WeatherDisplay:10.37,2013-09-22 21:15:00,
2013-09-22 17:20:00,67.5,21.1,29.00,NW,321,0.0,6.0,17,0.00,CLR,,0.00,WeatherDisplay:10.37,2013-09-22 21:20:00,
2013-09-22 17:25:00,67.5,21.1,29.00,NNW,341,3.0,8.0,17,0.00,CLR,,0.00,WeatherDisplay:10.37,2013-09-22 21:25:00,
2013-09-22 17:35:00,67.6,21.2,29.00,ENE,78,0.0,4.0,17,0.00,CLR,,0.00,WeatherDisplay:10.37,2013-09-22 21:35:00,
2013-09-22 17:40:00,67.7,21.3,29.00,ENE,67,2.0,4.0,17,0.00,CLR,,0.00,WeatherDisplay:10.37,2013-09-22 21:40:00,
2013-09-22 17:50:00,67.5,21.1,29.00,ENE,66,0.0,4.0,17,0.00,CLR,,0.00,WeatherDisplay:10.37,2013-09-22 21:50:00,
2013-09-22 17:55:00,67.4,21.1,29.00,ENE,72,0.0,6.0,17,0.00,CLR,,0.00,WeatherDisplay:10.37,2013-09-22 21:55:00,
2013-09-22 18:05:00,67.1,20.8,29.00,ENE,72,0.0,3.0,17,0.00,CLR,,0.00,WeatherDisplay:10.37,2013-09-22 22:05:00,
2013-09-22 18:10:00,66.9,20.6,29.00,ENE,77,0.0,4.0,17,0.00,CLR,,0.00,WeatherDisplay:10.37,2013-09-22 22:10:00,
2013-09-22 18:15:00,66.7,20.5,29.00,ENE,71,2.0,4.0,17,0.00,CLR,,0.00,WeatherDisplay:10.37,2013-09-22 22:15:00,
2013-09-22 18:25:00,66.6,20.3,29.00,ENE,65,0.0,6.0,17,0.00,CLR,,0.00,WeatherDisplay:10.37,2013-09-22 22:25:00,
2013-09-22 18:30:00,66.4,20.2,29.00,ENE,63,0.0,4.0,17,0.00,CLR,,0.00,WeatherDisplay:10.37,2013-09-22 22:30:00,
2013-09-22 18:35:00,66.2,20.0,29.00,ENE,66,0.0,6.0,17,0.00,CLR,,0.00,WeatherDisplay:10.37,2013-09-22 22:35:00,
2013-09-22 18:40:00,66.0,21.2,29.00,ENE,67,0.0,3.0,18,0.00,CLR,,0.00,WeatherDisplay:10.37,2013-09-22 22:40:00,
2013-09-22 18:50:00,65.7,21.0,29.00,ENE,68,0.0,3.0,18,0.00,CLR,,0.00,WeatherDisplay:10.37,2013-09-22 22:50:00,
2013-09-22 19:00:00,65.1,20.5,29.00,East,85,0.0,3.0,18,0.00,CLR,,0.00,WeatherDisplay:10.37,2013-09-22 23:00:00,
2013-09-22 19:05:00,64.9,20.4,29.00,East,100,0.0,0.0,18,0.00,CLR,,0.00,WeatherDisplay:10.37,2013-09-22 23:05:00,
2013-09-22 19:15:00,64.1,16.9,29.03,East,101,0.0,0.0,16,0.00,CLR,,0.00,WeatherDisplay:10.37,2013-09-22 23:15:00,
2013-09-22 19:20:00,63.5,16.4,29.03,East,101,0.0,0.0,16,0.00,CLR,,0.00,WeatherDisplay:10.37,2013-09-22 23:20:00,
2013-09-22 19:30:00,61.8,15.1,29.03,East,101,0.0,0.0,16,0.00,CLR,,0.00,WeatherDisplay:10.37,2013-09-22 23:30:00,
2013-09-22 19:35:00,61.3,14.7,29.03,East,101,0.0,0.0,16,0.00,CLR,,0.00,WeatherDisplay:10.37,2013-09-22 23:35:00,
2013-09-22 19:40:00,60.6,15.5,29.03,East,101,0.0,0.0,17,0.00,CLR,,0.00,WeatherDisplay:10.37,2013-09-22 23:40:00,
2013-09-22 19:50:00,59.4,14.5,29.03,East,101,0.0,0.0,17,0.00,CLR,,0.00,WeatherDisplay:10.37,2013-09-22 23:50:00,
2013-09-22 19:55:00,59.2,14.3,29.03,East,101,0.0,0.0,17,0.00,CLR,,0.00,WeatherDisplay:10.37,2013-09-22 23:55:00,
2013-09-22 20:00:00,58.5,13.8,29.03,East,101,0.0,0.0,17,0.00,CLR,,0.00,WeatherDisplay:10.37,2013-09-23 00:00:00,
2013-09-22 20:05:00,58.0,13.3,29.03,East,101,0.0,0.0,17,0.00,CLR,,0.00,WeatherDisplay:10.37,2013-09-23 00:05:00,
2013-09-22 20:15:00,57.5,12.9,29.03,East,101,0.0,0.0,17,0.00,CLR,,0.00,WeatherDisplay:10.37,2013-09-23 00:15:00,
2013-09-22 20:20:00,56.9,12.5,29.03,East,101,0.0,0.0,17,0.00,CLR,,0.00,WeatherDisplay:10.37,2013-09-23 00:20:00,
2013-09-22 20:30:00,56.3,12.0,29.03,East,101,0.0,0.0,17,0.00,CLR,,0.00,WeatherDisplay:10.37,2013-09-23 00:30:00,
2013-09-22 20:35:00,55.9,11.6,29.03,East,101,0.0,0.0,17,0.00,CLR,,0.00,WeatherDisplay:10.37,2013-09-23 00:35:00,
2013-09-22 20:45:00,55.4,11.2,29.03,East,101,0.0,0.0,17,0.00,CLR,,0.00,WeatherDisplay:10.37,2013-09-23 00:45:00,
2013-09-22 20:50:00,54.9,12.1,29.03,East,101,0.0,0.0,18,0.00,CLR,,0.00,WeatherDisplay:10.37,2013-09-23 00:50:00,
2013-09-22 21:00:00,54.5,11.8,29.03,East,101,0.0,0.0,18,0.00,CLR,,0.00,WeatherDisplay:10.37,2013-09-23 01:00:00,
2013-09-22 21:10:00,53.8,11.2,29.03,East,101,0.0,0.0,18,0.00,CLR,,0.00,WeatherDisplay:10.37,2013-09-23 01:10:00,
2013-09-22 21:15:00,53.7,11.1,29.03,East,101,0.0,0.0,18,0.00,CLR,,0.00,WeatherDisplay:10.37,2013-09-23 01:15:00,
2013-09-22 21:25:00,53.1,10.6,29.03,East,101,0.0,0.0,18,0.00,CLR,,0.00,WeatherDisplay:10.37,2013-09-23 01:25:00,
2013-09-22 21:30:00,52.5,10.2,29.03,East,101,0.0,0.0,18,0.00,CLR,,0.00,WeatherDisplay:10.37,2013-09-23 01:30:00,
2013-09-22 21:40:00,52.3,10.0,29.03,East,101,0.0,0.0,18,0.00,CLR,,0.00,WeatherDisplay:10.37,2013-09-23 01:40:00,
2013-09-22 21:45:00,52.3,10.0,29.03,East,101,0.0,0.0,18,0.00,CLR,,0.00,WeatherDisplay:10.37,2013-09-23 01:45:00,
2013-09-22 21:55:00,52.0,9.7,29.04,East,101,0.0,0.0,18,0.00,CLR,,0.00,WeatherDisplay:10.37,2013-09-23 01:55:00,
2013-09-22 22:00:00,51.8,9.6,29.06,East,101,0.0,0.0,18,0.00,CLR,,0.00,WeatherDisplay:10.37,2013-09-23 02:00:00,
2013-09-22 22:10:00,50.9,10.0,29.06,East,101,0.0,0.0,19,0.00,CLR,,0.00,WeatherDisplay:10.37,2013-09-23 02:10:00,
2013-09-22 22:15:00,50.5,9.7,29.06,East,101,0.0,0.0,19,0.00,CLR,,0.00,WeatherDisplay:10.37,2013-09-23 02:15:00,
2013-09-22 22:20:00,50.2,9.4,29.06,East,101,0.0,0.0,19,0.00,CLR,,0.00,WeatherDisplay:10.37,2013-09-23 02:20:00,
2013-09-22 22:25:00,50.4,9.6,29.06,East,101,0.0,3.0,19,0.00,CLR,,0.00,WeatherDisplay:10.37,2013-09-23 02:25:00,
2013-09-22 22:30:00,50.7,9.8,29.06,ENE,76,3.0,5.0,19,0.00,CLR,,0.00,WeatherDisplay:10.37,2013-09-23 02:30:00,
2013-09-22 22:35:00,51.3,10.4,29.06,ENE,62,3.0,6.0,19,0.00,CLR,,0.00,WeatherDisplay:10.37,2013-09-23 02:35:00,
2013-09-22 22:40:00,51.9,9.7,29.06,ENE,62,3.0,6.0,18,0.00,CLR,,0.00,WeatherDisplay:10.37,2013-09-23 02:40:00,
2013-09-22 22:50:00,52.2,9.9,29.06,ENE,62,0.0,5.0,18,0.00,CLR,,0.00,WeatherDisplay:10.37,2013-09-23 02:50:00,
2013-09-22 22:55:00,52.2,9.9,29.06,ENE,61,2.0,6.0,18,0.00,CLR,,0.00,WeatherDisplay:10.37,2013-09-23 02:55:00,
2013-09-22 23:00:00,52.0,9.7,29.06,ENE,64,3.0,6.0,18,0.00,CLR,,0.00,WeatherDisplay:10.37,2013-09-23 03:00:00,
2013-09-22 23:05:00,52.0,9.7,29.06,ENE,61,2.0,4.0,18,0.00,CLR,,0.00,WeatherDisplay:10.37,2013-09-23 03:05:00,
2013-09-22 23:10:00,51.6,10.6,29.06,ENE,65,3.0,4.0,19,0.00,CLR,,0.00,WeatherDisplay:10.37,2013-09-23 03:10:00,
2013-09-22 23:20:00,51.3,10.3,29.06,ENE,78,2.0,3.0,19,0.00,CLR,,0.00,WeatherDisplay:10.37,2013-09-23 03:20:00,
2013-09-22 23:25:00,51.1,10.2,29.06,ENE,77,2.0,4.0,19,0.00,CLR,,0.00,WeatherDisplay:10.37,2013-09-23 03:25:00,
2013-09-22 23:35:00,50.9,10.0,29.06,ENE,72,3.0,4.0,19,0.00,CLR,,0.00,WeatherDisplay:10.37,2013-09-23 03:35:00,
2013-09-22 23:45:00,50.5,9.7,29.06,ENE,71,3.0,4.0,19,0.00,CLR,,0.00,WeatherDisplay:10.37,2013-09-23 03:45:00,
2013-09-22 23:50:00,50.4,9.6,29.06,ENE,70,1.0,4.0,19,0.00,CLR,,0.00,WeatherDisplay:10.37,2013-09-23 03:50:00,
2013-09-22 23:55:00,50.2,11.7,29.06,ENE,71,0.0,4.0,21,0.00,CLR,,0.00,WeatherDisplay:10.37,2013-09-23 03:55:00,